Weather in Jimbaran

Indonesia     8°47′21″S   115°09′36″E
temp.,
°C
wind,
m/s
gust,
m/s
humid.,
%
clouds,
%
prec.,
mm/h
press.,
hPa
HPBL,
m
17 may, mon
mon1723:00+27ese557610 0.1 1011793
02:00+27ese567713 0.3 1010750
05:00+27ese677883 0.4 1009822
08:00+27ese677829 0.8 1011765
11:00+27ese667531 0.2 1011854
14:00+27se667680 0.3 1008812
17:00+28se667595 0.0 1008779
20:00+28ese667696 0.0 1010830
18 may, tue
tue1823:00+27ese777788 0.4 1011811
02:00+27ese6776100 1.1 1009842
05:00+27ese5676100 0.4 1009845
08:00+27ese5577100 1.1 1011742
11:00+27se5577100 0.1 1010734
14:00+27se5578100 0.3 1008692
17:00+27ese5679100 0.1 1008709
20:00+27ese6780100 0.5 1010677
19 may, wed
wed1923:00+27ese6680100 0.6 1011666
02:00+27ese668029 0.9 1009729
05:00+27ese667858 0.4 1009817
08:00+27ese777815 1.0 1010800
11:00+27ese677910 0.8 1010788
14:00+27se677915 2.1 1007759
17:00+27ese677918 1.4 1008739
20:00+27ese567940 3.1 1010662
20 may, thu
thu2023:00+27ese568090 1.8 1011700
02:00+27ese5681100 3.3 1010647
05:00+27ese5680100 2.4 1010698
08:00+27ese56797 3.3 1011682
11:00+27ese45827 2.3 1011570
14:00+27se678125 4.5 1009691
17:00+27se677918 3.7 1009718
20:00+27ese578258 9.8 1012496
21 may, fri
fri2123:00+27ese5679100 4.1 1012699
02:00+27ese5677100 6.0 1011767
05:00+27ese5676100 0.9 1010857
08:00+27ese667787 1.1 1012802
11:00+27se557611 0.1 1012727
14:00+27se557591 0.3 1009656
17:00+27se457539 0.1 1009582
20:00+28se5675100 0.3 1011594